Погода в Ульянково

Россия / Республика Татарстан     55°24′58″N   48°04′01″E
темп.,
°C
ветер,
м/с
пор.,
м/с
влажн.,
%
обл.,
%
осадки,
мм/ч
давл.,
гПа
погр.,
м
28 февраля, вс
вс2800:00−18ссз5109677 0.0 1007249
03:00−19ссз5109687 0.0 1008240
06:00−20ссз5109683 0.0 1009225
09:00−19ссз599580 0.0 1010266
12:00−15ссз579377 0.0 1011325
15:00−13ссз599285 0.0 1012479
18:00−15ссз4696100 0.0 101497
21:00−18ссз349893 0.1 101770
1 марта, пн
пн100:00−19ссз349850 0.0 101845
03:00−20ссз349929 0.0 102039
06:00−21ссз3310046 0.0 102125
09:00−18сз239755 0.0 1022112
12:00−14зсз248950 0.0 1021300
15:00−11з359271 0.0 1021332
18:00−13юз459687 0.0 101991
21:00−11юз5109593 0.0 1017241
2 марта, вт
вт200:00−8юз71294100 0.1 1012388
03:00−5юз81595100 1.3 1008565
06:00−3зюз71495100 0.9 1004544
09:000з61199100 2.1 1002634
12:000з61199100 0.7 1000687
15:000зсз6119899 0.9 1000735
18:00−2з4119383 0.1 1000307
21:00−4зсз4109673 0.1 1002223
3 марта, ср
ср300:00−4зсз5109596 0.1 1002348
03:00−7зсз4119683 0.1 1003209
06:00−9зсз499633 0.0 1003196
09:00−6сз599457 0.1 1005384
12:00−4сз688794 0.1 1006742
15:00−4зсз598773 0.1 1007518
18:00−7з47930 0.0 1008109
21:00−7зсз5119444 0.1 1009340
4 марта, чт
чт400:00−10з4109678 0.0 1008222
03:00−10зюз5109587 0.1 1007249
06:00−9зюз5119498 0.1 1006276
09:00−6юз7139299 0.1 1003466
12:00−3юз91594100 0.3 999832
15:00−1зюз101693100 1.2 9951204
18:00−1зюз101791100 0.6 9941073
21:00−1з101695100 1.2 9951082